contact: severine.martini@mio.osupytheas.fr, dominique.lefevre@mio.osupytheas.fr
Project:EMSO Ligure-ouest http://www.emso-fr.org/EMSO-France
Sensor Optode, line 4330 Serial 272 
DOI : "https://doi.org/10.17882/97948" 
Title:EMSO Ligure Ouest : Data BathyDock capteur Optode - deploiement "2023-04-28"
Datetime,Profondeur,Latitude,Longitude,optode_type,serial,O2_concentration,O2_saturation,Temperature,Calibrated_Phase,Temp_Compensated_Phase,phase_blue_light,phase_red_light,Amplitude_blue_light,Amplitude_red_light,thermistor_bridge
time,m,degree_north,degree_east,1,1,umol.l-1,%,degree_C,degree,degree,degree,degree,mV,mV,mV
2023-12-27T00:00:07,2420,42.8014,5.9826,4330,272,186.637,57.160,13.309,36.029,36.609,41.196,4.587,295.8,545.3,291.3
2023-12-27T00:03:07,2420,42.8014,5.9826,4330,272,186.242,57.041,13.310,36.054,36.634,41.226,4.592,295.8,545.3,291.2
2023-12-27T00:06:07,2420,42.8014,5.9826,4330,272,186.246,57.043,13.311,36.053,36.633,41.223,4.589,295.8,545.3,291.2
2023-12-27T00:09:07,2420,42.8014,5.9826,4330,272,186.036,56.977,13.310,36.068,36.647,41.229,4.582,295.9,545.4,291.2
2023-12-27T00:12:07,2420,42.8014,5.9826,4330,272,186.208,57.030,13.309,36.057,36.636,41.226,4.589,295.9,545.3,291.2
2023-12-27T00:15:07,2420,42.8014,5.9826,4330,272,186.455,57.106,13.310,36.040,36.620,41.208,4.588,295.8,545.3,291.2
2023-12-27T00:18:07,2420,42.8014,5.9826,4330,272,186.335,57.068,13.309,36.049,36.629,41.218,4.589,295.8,545.3,291.3
2023-12-27T00:21:07,2420,42.8014,5.9826,4330,272,186.396,57.087,13.309,36.045,36.625,41.216,4.591,295.8,545.4,291.3
2023-12-27T00:24:08,2420,42.8014,5.9826,4330,272,185.954,56.951,13.309,36.074,36.653,41.240,4.586,295.9,545.3,291.3
2023-12-27T00:27:08,2420,42.8014,5.9826,4330,272,186.217,57.033,13.310,36.056,36.636,41.218,4.582,295.9,545.3,291.2
2023-12-27T00:30:08,2420,42.8014,5.9826,4330,272,186.226,57.038,13.311,36.055,36.634,41.224,4.589,295.9,545.3,291.2
2023-12-27T00:33:07,2420,42.8014,5.9826,4330,272,186.129,57.005,13.309,36.062,36.642,41.227,4.585,295.9,545.3,291.3
2023-12-27T00:36:07,2420,42.8014,5.9826,4330,272,186.281,57.054,13.311,36.051,36.631,41.217,4.586,295.9,545.3,291.2
2023-12-27T00:39:07,2420,42.8014,5.9826,4330,272,186.058,56.986,13.311,36.066,36.645,41.228,4.583,295.9,545.3,291.2
2023-12-27T00:42:07,2420,42.8014,5.9826,4330,272,185.897,56.942,13.315,36.074,36.654,41.238,4.584,295.9,545.3,291.1
2023-12-27T00:45:08,2420,42.8014,5.9826,4330,272,186.170,57.022,13.313,36.057,36.637,41.226,4.589,295.9,545.3,291.1
2023-12-27T00:48:08,2420,42.8014,5.9826,4330,272,186.064,56.989,13.312,36.065,36.645,41.231,4.586,295.9,545.3,291.2
2023-12-27T00:51:08,2420,42.8014,5.9826,4330,272,186.026,56.977,13.312,36.067,36.647,41.236,4.589,295.9,545.2,291.2
2023-12-27T00:54:08,2420,42.8014,5.9826,4330,272,186.413,57.103,13.318,36.039,36.619,41.211,4.592,295.9,545.3,291.0
2023-12-27T00:57:07,2420,42.8014,5.9826,4330,272,186.365,57.088,13.317,36.042,36.622,41.213,4.591,295.9,545.2,291.0
2023-12-27T01:00:07,2420,42.8014,5.9826,4330,272,186.182,57.033,13.318,36.053,36.633,41.219,4.586,296.0,545.4,291.0
2023-12-27T01:03:07,2420,42.8014,5.9826,4330,272,186.129,57.007,13.311,36.061,36.641,41.233,4.592,296.0,545.3,291.2
2023-12-27T01:06:07,2420,42.8014,5.9826,4330,272,186.006,56.970,13.311,36.069,36.648,41.228,4.579,295.9,545.3,291.2
2023-12-27T01:09:07,2420,42.8014,5.9826,4330,272,186.234,57.039,13.310,36.054,36.634,41.225,4.591,295.9,545.3,291.2
2023-12-27T01:12:07,2420,42.8014,5.9826,4330,272,186.155,57.018,13.313,36.059,36.639,41.229,4.590,295.8,545.2,291.1
2023-12-27T01:15:07,2420,42.8014,5.9826,4330,272,186.023,56.982,13.316,36.065,36.645,41.237,4.591,295.9,545.2,291.0
2023-12-27T01:18:08,2420,42.8014,5.9826,4330,272,185.973,56.961,13.312,36.070,36.650,41.236,4.585,295.9,545.2,291.1
2023-12-27T01:21:08,2420,42.8014,5.9826,4330,272,186.278,57.055,13.313,36.050,36.630,41.221,4.591,295.9,545.3,291.1
2023-12-27T01:24:08,2420,42.8014,5.9826,4330,272,186.261,57.056,13.317,36.050,36.630,41.220,4.590,295.9,545.3,291.0
2023-12-27T01:27:08,2420,42.8014,5.9826,4330,272,186.152,57.019,13.314,36.058,36.638,41.223,4.585,295.9,545.2,291.1
2023-12-27T01:30:07,2420,42.8014,5.9826,4330,272,186.052,56.983,13.310,36.066,36.646,41.231,4.585,295.9,545.3,291.2
2023-12-27T01:33:07,2420,42.8014,5.9826,4330,272,186.026,56.978,13.313,36.067,36.647,41.234,4.587,295.9,545.3,291.1
2023-12-27T01:36:07,2420,42.8014,5.9826,4330,272,186.164,57.020,13.313,36.058,36.638,41.225,4.587,295.9,545.3,291.1
2023-12-27T01:39:07,2420,42.8014,5.9826,4330,272,186.183,57.023,13.310,36.058,36.638,41.226,4.588,295.9,545.4,291.2
2023-12-27T01:42:08,2420,42.8014,5.9826,4330,272,186.231,57.039,13.311,36.054,36.634,41.221,4.587,295.9,545.3,291.2
2023-12-27T01:45:08,2420,42.8014,5.9826,4330,272,186.331,57.070,13.311,36.048,36.628,41.213,4.586,295.9,545.3,291.2
2023-12-27T01:48:08,2420,42.8014,5.9826,4330,272,186.146,57.014,13.312,36.059,36.639,41.225,4.586,296.0,545.3,291.1
2023-12-27T01:51:08,2420,42.8014,5.9826,4330,272,186.405,57.094,13.313,36.042,36.622,41.215,4.593,295.9,545.2,291.1
2023-12-27T01:54:07,2420,42.8014,5.9826,4330,272,186.277,57.057,13.314,36.050,36.629,41.218,4.588,295.9,545.2,291.1
2023-12-27T01:57:07,2420,42.8014,5.9826,4330,272,186.191,57.026,13.311,36.057,36.637,41.223,4.586,295.9,545.3,291.2
2023-12-27T02:00:08,2420,42.8014,5.9826,4330,272,185.943,56.954,13.313,36.072,36.652,41.238,4.586,296.0,545.3,291.1
2023-12-27T02:03:07,2420,42.8014,5.9826,4330,272,186.190,57.039,13.321,36.052,36.632,41.222,4.591,295.9,545.3,290.9
2023-12-27T02:06:07,2420,42.8014,5.9826,4330,272,186.317,57.068,13.313,36.048,36.628,41.217,4.590,295.9,545.3,291.1
2023-12-27T02:09:07,2420,42.8014,5.9826,4330,272,186.016,56.973,13.311,36.068,36.648,41.233,4.585,296.0,545.3,291.2
2023-12-27T02:12:07,2420,42.8014,5.9826,4330,272,186.124,57.014,13.318,36.058,36.638,41.227,4.588,295.9,545.3,291.0
2023-12-27T02:15:07,2420,42.8014,5.9826,4330,272,186.045,56.991,13.318,36.063,36.643,41.232,4.590,295.9,545.3,291.0
2023-12-27T02:18:07,2420,42.8014,5.9826,4330,272,186.024,56.980,13.314,36.066,36.646,41.230,4.584,295.8,545.2,291.1
2023-12-27T02:21:07,2420,42.8014,5.9826,4330,272,186.203,57.035,13.315,36.054,36.634,41.222,4.588,295.9,545.2,291.1
2023-12-27T02:24:07,2420,42.8014,5.9826,4330,272,186.111,57.005,13.313,36.062,36.641,41.226,4.584,295.9,545.3,291.1
2023-12-27T02:27:07,2420,42.8014,5.9826,4330,272,186.066,56.991,13.313,36.064,36.644,41.233,4.589,295.9,545.3,291.1
2023-12-27T02:30:08,2420,42.8014,5.9826,4330,272,186.067,57.001,13.321,36.060,36.640,41.227,4.587,296.0,545.3,290.9
2023-12-27T02:33:07,2420,42.8014,5.9826,4330,272,186.297,57.062,13.314,36.049,36.629,41.218,4.589,295.9,545.3,291.1
2023-12-27T02:36:07,2420,42.8014,5.9826,4330,272,186.033,56.986,13.317,36.064,36.644,41.231,4.587,295.9,545.3,291.0
2023-12-27T02:39:07,2420,42.8014,5.9826,4330,272,185.841,56.938,13.326,36.072,36.652,41.236,4.584,295.9,545.3,290.7
2023-12-27T02:42:07,2420,42.8014,5.9826,4330,272,186.030,56.992,13.323,36.062,36.642,41.229,4.587,296.0,545.3,290.8
2023-12-27T02:45:07,2420,42.8014,5.9826,4330,272,186.180,57.025,13.312,36.057,36.637,41.225,4.588,295.8,545.3,291.2
2023-12-27T02:48:07,2420,42.8014,5.9826,4330,272,186.119,57.012,13.317,36.058,36.638,41.225,4.587,295.9,545.3,291.0
2023-12-27T02:51:08,2420,42.8014,5.9826,4330,272,185.998,56.969,13.313,36.069,36.649,41.234,4.585,296.0,545.3,291.1
2023-12-27T02:54:08,2420,42.8014,5.9826,4330,272,186.131,57.013,13.315,36.059,36.638,41.227,4.588,295.9,545.3,291.1
2023-12-27T02:57:08,2420,42.8014,5.9826,4330,272,186.058,56.998,13.320,36.061,36.641,41.226,4.586,295.8,545.2,290.9
2023-12-27T03:00:08,2420,42.8014,5.9826,4330,272,186.205,57.029,13.310,36.057,36.637,41.227,4.590,296.0,545.3,291.2
2023-12-27T03:03:07,2420,42.8014,5.9826,4330,272,186.105,57.012,13.321,36.058,36.638,41.228,4.590,295.8,545.3,290.9
2023-12-27T03:06:07,2420,42.8014,5.9826,4330,272,186.079,56.995,13.313,36.063,36.643,41.227,4.585,295.9,545.3,291.1
2023-12-27T03:09:08,2420,42.8014,5.9826,4330,272,186.130,57.017,13.318,36.057,36.637,41.227,4.590,295.9,545.3,291.0
2023-12-27T03:12:07,2420,42.8014,5.9826,4330,272,186.207,57.044,13.321,36.051,36.631,41.220,4.589,295.9,545.3,290.9
2023-12-27T03:15:07,2420,42.8014,5.9826,4330,272,185.877,56.932,13.313,36.076,36.656,41.241,4.585,295.9,545.3,291.1
2023-12-27T03:18:08,2420,42.8014,5.9826,4330,272,186.025,56.984,13.318,36.064,36.644,41.233,4.589,295.8,545.3,291.0
2023-12-27T03:21:08,2420,42.8014,5.9826,4330,272,186.110,57.010,13.317,36.059,36.639,41.227,4.587,295.9,545.3,291.0
2023-12-27T03:24:08,2420,42.8014,5.9826,4330,272,186.047,56.992,13.319,36.062,36.642,41.225,4.583,295.8,545.3,290.9
2023-12-27T03:27:07,2420,42.8014,5.9826,4330,272,186.010,56.985,13.322,36.063,36.643,41.234,4.591,295.9,545.2,290.8
2023-12-27T03:30:07,2420,42.8014,5.9826,4330,272,186.138,57.018,13.317,36.057,36.637,41.230,4.593,296.0,545.3,291.0
2023-12-27T03:33:08,2420,42.8014,5.9826,4330,272,186.218,57.042,13.316,36.052,36.632,41.223,4.590,295.9,545.2,291.0
2023-12-27T03:36:07,2420,42.8014,5.9826,4330,272,186.216,57.043,13.318,36.052,36.632,41.220,4.589,295.8,545.3,291.0
2023-12-27T03:39:07,2420,42.8014,5.9826,4330,272,185.975,56.969,13.317,36.068,36.648,41.235,4.588,295.9,545.2,291.0
2023-12-27T03:42:07,2420,42.8014,5.9826,4330,272,186.147,57.038,13.331,36.050,36.630,41.220,4.590,295.9,545.3,290.5
2023-12-27T03:45:08,2420,42.8014,5.9826,4330,272,186.208,57.046,13.322,36.050,36.630,41.220,4.590,295.9,545.3,290.8
2023-12-27T03:48:08,2420,42.8014,5.9826,4330,272,186.122,57.015,13.319,36.057,36.637,41.226,4.588,295.9,545.2,290.9
2023-12-27T03:51:08,2420,42.8014,5.9826,4330,272,186.267,57.056,13.316,36.049,36.629,41.215,4.586,295.9,545.3,291.0
2023-12-27T03:54:08,2420,42.8014,5.9826,4330,272,186.213,57.044,13.320,36.051,36.631,41.219,4.588,295.9,545.2,290.9
2023-12-27T03:57:07,2420,42.8014,5.9826,4330,272,185.958,56.970,13.323,36.066,36.646,41.234,4.588,295.9,545.2,290.8
2023-12-27T04:00:07,2420,42.8014,5.9826,4330,272,185.854,56.948,13.331,36.069,36.649,41.234,4.585,295.9,545.2,290.5
2023-12-27T04:03:07,2420,42.8014,5.9826,4330,272,185.858,56.952,13.333,36.068,36.648,41.237,4.589,296.0,545.3,290.5
2023-12-27T04:06:07,2420,42.8014,5.9826,4330,272,185.763,56.917,13.328,36.077,36.656,41.243,4.587,295.9,545.2,290.6
2023-12-27T04:09:07,2420,42.8014,5.9826,4330,272,185.976,56.979,13.325,36.064,36.644,41.235,4.591,296.0,545.2,290.7
2023-12-27T04:12:07,2420,42.8014,5.9826,4330,272,186.078,57.018,13.332,36.054,36.634,41.223,4.590,296.0,545.3,290.5
2023-12-27T04:15:08,2420,42.8014,5.9826,4330,272,185.820,56.922,13.318,36.077,36.657,41.240,4.583,296.0,545.3,291.0
2023-12-27T04:18:08,2420,42.8014,5.9826,4330,272,185.857,56.932,13.318,36.076,36.656,41.242,4.586,296.0,545.3,291.0
2023-12-27T04:21:08,2420,42.8014,5.9826,4330,272,186.158,57.028,13.320,36.054,36.634,41.223,4.589,296.0,545.3,290.9
2023-12-27T04:24:08,2420,42.8014,5.9826,4330,272,186.043,56.990,13.318,36.064,36.643,41.226,4.582,295.9,545.2,291.0
2023-12-27T04:27:08,2420,42.8014,5.9826,4330,272,186.228,57.052,13.323,36.049,36.629,41.220,4.591,295.9,545.3,290.8
2023-12-27T04:30:07,2420,42.8014,5.9826,4330,272,186.367,57.099,13.326,36.038,36.618,41.206,4.588,295.9,545.3,290.7
2023-12-27T04:33:07,2420,42.8014,5.9826,4330,272,186.016,56.979,13.315,36.066,36.645,41.235,4.590,295.9,545.3,291.0
2023-12-27T04:36:07,2420,42.8014,5.9826,4330,272,186.255,57.053,13.316,36.050,36.630,41.217,4.587,295.9,545.3,291.0
2023-12-27T04:39:08,2420,42.8014,5.9826,4330,272,186.336,57.083,13.321,36.042,36.622,41.213,4.591,295.9,545.3,290.9
2023-12-27T04:42:08,2420,42.8014,5.9826,4330,272,186.212,57.034,13.312,36.055,36.635,41.223,4.588,295.9,545.3,291.2
2023-12-27T04:45:08,2420,42.8014,5.9826,4330,272,185.927,56.951,13.315,36.072,36.652,41.241,4.589,295.9,545.3,291.1
2023-12-27T04:48:08,2420,42.8014,5.9826,4330,272,186.174,57.035,13.322,36.052,36.632,41.219,4.586,295.9,545.4,290.8
2023-12-27T04:51:08,2420,42.8014,5.9826,4330,272,186.103,57.006,13.316,36.060,36.640,41.225,4.585,295.8,545.3,291.0
2023-12-27T04:54:07,2420,42.8014,5.9826,4330,272,186.215,57.044,13.319,36.051,36.631,41.215,4.584,295.9,545.3,290.9
2023-12-27T04:57:07,2420,42.8014,5.9826,4330,272,186.042,56.979,13.310,36.067,36.647,41.227,4.580,295.9,545.2,291.2
2023-12-27T05:00:07,2420,42.8014,5.9826,4330,272,186.131,57.014,13.316,36.059,36.639,41.221,4.583,296.0,545.3,291.0
2023-12-27T05:03:07,2420,42.8014,5.9826,4330,272,186.031,56.982,13.315,36.066,36.646,41.234,4.588,295.9,545.2,291.1
2023-12-27T05:06:07,2420,42.8014,5.9826,4330,272,185.970,56.967,13.317,36.068,36.648,41.232,4.584,295.9,545.4,291.0
2023-12-27T05:09:07,2420,42.8014,5.9826,4330,272,185.905,56.948,13.318,36.072,36.652,41.241,4.589,295.9,545.3,291.0
2023-12-27T05:12:07,2420,42.8014,5.9826,4330,272,186.094,56.999,13.312,36.063,36.643,41.232,4.589,295.9,545.4,291.1
2023-12-27T05:15:07,2420,42.8014,5.9826,4330,272,186.444,57.101,13.308,36.042,36.622,41.212,4.591,295.9,545.3,291.3
2023-12-27T05:18:07,2420,42.8014,5.9826,4330,272,186.062,56.985,13.309,36.067,36.646,41.235,4.589,295.9,545.4,291.2
2023-12-27T05:21:07,2420,42.8014,5.9826,4330,272,186.171,57.018,13.310,36.059,36.639,41.225,4.586,295.8,545.3,291.2
2023-12-27T05:24:07,2420,42.8014,5.9826,4330,272,186.410,57.091,13.309,36.044,36.624,41.212,4.588,295.9,545.3,291.3
2023-12-27T05:27:07,2420,42.8014,5.9826,4330,272,186.189,57.023,13.309,36.058,36.638,41.230,4.592,295.8,545.3,291.3
2023-12-27T05:30:08,2420,42.8014,5.9826,4330,272,186.138,57.010,13.311,36.061,36.640,41.226,4.585,295.9,545.3,291.2
2023-12-27T05:33:07,2420,42.8014,5.9826,4330,272,186.034,56.978,13.310,36.067,36.647,41.236,4.589,295.9,545.3,291.2
2023-12-27T05:36:07,2420,42.8014,5.9826,4330,272,186.438,57.099,13.308,36.042,36.622,41.210,4.588,295.9,545.3,291.3
2023-12-27T05:39:07,2420,42.8014,5.9826,4330,272,186.236,57.039,13.310,36.054,36.634,41.221,4.587,295.8,545.3,291.2
2023-12-27T05:42:07,2420,42.8014,5.9826,4330,272,186.436,57.102,13.311,36.041,36.621,41.205,4.584,295.8,545.4,291.2
2023-12-27T05:45:07,2420,42.8014,5.9826,4330,272,186.307,57.063,13.312,36.049,36.629,41.217,4.588,295.9,545.3,291.2
2023-12-27T05:48:08,2420,42.8014,5.9826,4330,272,186.296,57.059,13.311,36.050,36.630,41.214,4.584,295.8,545.3,291.2
2023-12-27T05:51:08,2420,42.8014,5.9826,4330,272,186.362,57.081,13.313,36.045,36.625,41.211,4.586,295.8,545.2,291.1
2023-12-27T05:54:08,2420,42.8014,5.9826,4330,272,186.230,57.043,13.315,36.052,36.632,41.217,4.585,295.8,545.3,291.1
2023-12-27T05:57:08,2420,42.8014,5.9826,4330,272,186.211,57.041,13.318,36.052,36.632,41.218,4.585,295.8,545.2,291.0
2023-12-27T06:00:07,2420,42.8014,5.9826,4330,272,186.170,57.025,13.315,36.057,36.636,41.220,4.584,295.9,545.3,291.1
2023-12-27T06:03:07,2420,42.8014,5.9826,4330,272,185.986,56.969,13.316,36.068,36.648,41.236,4.588,295.8,545.3,291.0
2023-12-27T06:06:07,2420,42.8014,5.9826,4330,272,186.263,57.049,13.312,36.052,36.632,41.219,4.587,295.8,545.3,291.2
2023-12-27T06:09:07,2420,42.8014,5.9826,4330,272,186.166,57.024,13.315,36.057,36.637,41.221,4.584,295.8,545.3,291.1
2023-12-27T06:12:07,2420,42.8014,5.9826,4330,272,186.159,57.015,13.310,36.060,36.640,41.228,4.588,295.9,545.2,291.2
2023-12-27T06:15:07,2420,42.8014,5.9826,4330,272,186.131,57.012,13.314,36.059,36.639,41.232,4.592,295.8,545.3,291.1
2023-12-27T06:18:08,2420,42.8014,5.9826,4330,272,186.235,57.041,13.312,36.053,36.633,41.220,4.587,295.9,545.3,291.2
2023-12-27T06:21:08,2420,42.8014,5.9826,4330,272,186.284,57.055,13.311,36.050,36.630,41.215,4.585,295.9,545.3,291.2
2023-12-27T06:24:08,2420,42.8014,5.9826,4330,272,186.206,57.033,13.313,36.055,36.635,41.223,4.588,295.9,545.3,291.1
2023-12-27T06:27:08,2420,42.8014,5.9826,4330,272,186.470,57.114,13.312,36.038,36.618,41.213,4.595,295.8,545.3,291.2
2023-12-27T06:30:07,2420,42.8014,5.9826,4330,272,186.145,57.011,13.310,36.060,36.640,41.232,4.592,295.9,545.2,291.2
2023-12-27T06:33:07,2420,42.8014,5.9826,4330,272,186.235,57.046,13.316,36.052,36.632,41.217,4.585,295.8,545.3,291.0
2023-12-27T06:36:07,2420,42.8014,5.9826,4330,272,186.149,57.017,13.314,36.058,36.638,41.224,4.586,295.8,545.3,291.1
2023-12-27T06:39:08,2420,42.8014,5.9826,4330,272,186.305,57.068,13.316,36.047,36.627,41.216,4.589,295.9,545.3,291.0
2023-12-27T06:42:08,2420,42.8014,5.9826,4330,272,186.240,57.047,13.316,36.052,36.632,41.220,4.588,295.9,545.2,291.0
2023-12-27T06:45:08,2420,42.8014,5.9826,4330,272,186.320,57.070,13.314,36.047,36.627,41.218,4.591,295.8,545.3,291.1
2023-12-27T06:48:07,2420,42.8014,5.9826,4330,272,186.148,57.020,13.317,36.057,36.637,41.221,4.584,295.8,545.2,291.0
2023-12-27T06:51:07,2420,42.8014,5.9826,4330,272,185.990,56.972,13.316,36.068,36.648,41.235,4.588,295.9,545.3,291.0
2023-12-27T06:54:07,2420,42.8014,5.9826,4330,272,186.286,57.062,13.316,36.048,36.628,41.212,4.583,295.8,545.2,291.0
2023-12-27T06:57:08,2420,42.8014,5.9826,4330,272,186.406,57.103,13.319,36.039,36.619,41.206,4.587,295.8,545.2,290.9
2023-12-27T07:00:08,2420,42.8014,5.9826,4330,272,186.306,57.070,13.318,36.046,36.626,41.216,4.590,295.9,545.2,291.0
2023-12-27T07:03:07,2420,42.8014,5.9826,4330,272,186.359,57.092,13.322,36.040,36.620,41.208,4.588,295.8,545.1,290.8
2023-12-27T07:06:07,2420,42.8014,5.9826,4330,272,186.157,57.026,13.319,36.055,36.635,41.229,4.594,295.8,545.2,290.9
2023-12-27T07:09:07,2420,42.8014,5.9826,4330,272,186.281,57.062,13.318,36.048,36.627,41.216,4.588,295.9,545.2,291.0
2023-12-27T07:12:07,2420,42.8014,5.9826,4330,272,186.394,57.094,13.315,36.042,36.622,41.207,4.585,295.8,545.2,291.1
2023-12-27T07:15:07,2420,42.8014,5.9826,4330,272,186.148,57.021,13.317,36.057,36.637,41.228,4.591,295.9,545.2,291.0
2023-12-27T07:18:07,2420,42.8014,5.9826,4330,272,186.224,57.044,13.317,36.052,36.632,41.222,4.591,295.7,545.2,291.0
2023-12-27T07:21:08,2420,42.8014,5.9826,4330,272,186.121,57.010,13.315,36.060,36.640,41.225,4.586,295.9,545.2,291.1
2023-12-27T07:24:08,2420,42.8014,5.9826,4330,272,186.359,57.086,13.317,36.043,36.623,41.211,4.588,295.7,545.2,291.0
2023-12-27T07:27:08,2420,42.8014,5.9826,4330,272,186.050,56.990,13.317,36.063,36.643,41.223,4.580,295.9,545.1,291.0
2023-12-27T07:30:08,2420,42.8014,5.9826,4330,272,186.093,57.002,13.316,36.061,36.641,41.225,4.584,295.8,545.3,291.0
2023-12-27T07:33:07,2420,42.8014,5.9826,4330,272,186.189,57.036,13.319,36.053,36.633,41.220,4.587,295.8,545.1,290.9
2023-12-27T07:36:07,2420,42.8014,5.9826,4330,272,186.224,57.042,13.315,36.052,36.632,41.223,4.591,295.9,545.2,291.1
2023-12-27T07:39:07,2420,42.8014,5.9826,4330,272,186.203,57.033,13.314,36.055,36.635,41.222,4.586,295.8,545.2,291.1
2023-12-27T07:42:08,2420,42.8014,5.9826,4330,272,185.987,56.970,13.316,36.068,36.648,41.233,4.585,295.8,545.2,291.0
2023-12-27T07:45:08,2420,42.8014,5.9826,4330,272,186.131,57.011,13.313,36.059,36.639,41.227,4.588,295.8,545.2,291.1
2023-12-27T07:48:08,2420,42.8014,5.9826,4330,272,186.420,57.103,13.316,36.040,36.620,41.211,4.591,295.9,545.2,291.0
2023-12-27T07:51:08,2420,42.8014,5.9826,4330,272,186.022,56.990,13.323,36.062,36.642,41.229,4.587,295.9,545.2,290.8
2023-12-27T07:54:08,2420,42.8014,5.9826,4330,272,186.152,57.024,13.319,36.056,36.636,41.223,4.587,295.8,545.2,290.9
2023-12-27T07:57:07,2420,42.8014,5.9826,4330,272,186.262,57.059,13.320,36.048,36.628,41.214,4.586,295.9,545.2,290.9
2023-12-27T08:00:07,2420,42.8014,5.9826,4330,272,186.106,57.009,13.317,36.059,36.639,41.225,4.586,295.8,545.2,291.0
2023-12-27T08:03:07,2420,42.8014,5.9826,4330,272,185.996,56.975,13.318,36.067,36.647,41.238,4.592,295.9,545.2,291.0
2023-12-27T08:06:07,2420,42.8014,5.9826,4330,272,186.064,57.001,13.321,36.060,36.640,41.228,4.589,295.9,545.3,290.9
2023-12-27T08:09:07,2420,42.8014,5.9826,4330,272,186.146,57.023,13.319,36.055,36.635,41.221,4.586,295.9,545.2,290.9
2023-12-27T08:12:07,2420,42.8014,5.9826,4330,272,186.212,57.043,13.319,36.052,36.632,41.220,4.588,295.9,545.2,290.9
2023-12-27T08:15:08,2420,42.8014,5.9826,4330,272,186.038,56.990,13.319,36.063,36.643,41.230,4.588,295.9,545.2,290.9
2023-12-27T08:18:08,2420,42.8014,5.9826,4330,272,186.122,57.020,13.322,36.056,36.635,41.224,4.588,295.9,545.2,290.8
2023-12-27T08:21:07,2420,42.8014,5.9826,4330,272,186.141,57.025,13.322,36.055,36.635,41.227,4.592,295.9,545.2,290.8
2023-12-27T08:24:07,2420,42.8014,5.9826,4330,272,185.972,56.976,13.324,36.065,36.645,41.239,4.595,295.9,545.2,290.8
2023-12-27T08:27:07,2420,42.8014,5.9826,4330,272,186.116,57.021,13.325,36.055,36.635,41.224,4.589,295.9,545.2,290.7
2023-12-27T08:30:07,2420,42.8014,5.9826,4330,272,185.978,56.985,13.330,36.062,36.642,41.227,4.585,295.8,545.2,290.6
2023-12-27T08:33:07,2420,42.8014,5.9826,4330,272,186.189,57.045,13.326,36.049,36.629,41.218,4.589,295.7,545.2,290.7
2023-12-27T08:36:07,2420,42.8014,5.9826,4330,272,186.158,57.034,13.325,36.052,36.632,41.220,4.588,295.8,545.1,290.8
2023-12-27T08:39:07,2420,42.8014,5.9826,4330,272,186.009,56.985,13.322,36.064,36.643,41.227,4.584,296.0,545.2,290.8
2023-12-27T08:42:07,2420,42.8014,5.9826,4330,272,185.906,56.955,13.323,36.070,36.649,41.240,4.591,296.0,545.2,290.8
2023-12-27T08:45:07,2420,42.8014,5.9826,4330,272,186.028,56.990,13.322,36.063,36.642,41.229,4.586,295.9,545.2,290.8
2023-12-27T08:48:08,2420,42.8014,5.9826,4330,272,185.929,56.967,13.327,36.066,36.645,41.227,4.582,295.9,545.2,290.7
2023-12-27T08:51:08,2420,42.8014,5.9826,4330,272,186.111,57.026,13.330,36.053,36.633,41.225,4.592,295.9,545.1,290.6
2023-12-27T08:54:08,2420,42.8014,5.9826,4330,272,186.019,57.017,13.345,36.051,36.631,41.216,4.585,295.9,545.1,290.1
2023-12-27T08:57:08,2420,42.8014,5.9826,4330,272,186.138,57.052,13.344,36.044,36.624,41.209,4.584,295.8,545.1,290.1
2023-12-27T09:00:08,2420,42.8014,5.9826,4330,272,186.007,57.012,13.344,36.053,36.633,41.220,4.587,295.9,545.1,290.1
2023-12-27T09:03:07,2420,42.8014,5.9826,4330,272,185.908,56.978,13.341,36.061,36.641,41.228,4.587,295.8,545.1,290.2
2023-12-27T09:06:07,2420,42.8014,5.9826,4330,272,185.923,56.979,13.338,36.061,36.641,41.225,4.585,295.9,545.1,290.3
2023-12-27T09:09:07,2420,42.8014,5.9826,4330,272,185.928,56.978,13.337,36.062,36.642,41.225,4.583,295.9,545.1,290.4
2023-12-27T09:12:08,2420,42.8014,5.9826,4330,272,185.841,56.952,13.337,36.067,36.647,41.230,4.583,295.8,545.1,290.3
2023-12-27T09:15:08,2420,42.8014,5.9826,4330,272,186.097,57.022,13.330,36.053,36.633,41.220,4.586,295.9,545.1,290.6
2023-12-27T09:18:08,2420,42.8014,5.9826,4330,272,186.032,57.001,13.329,36.058,36.638,41.229,4.591,295.9,545.2,290.6
2023-12-27T09:21:08,2420,42.8014,5.9826,4330,272,186.077,57.011,13.326,36.057,36.637,41.225,4.589,295.9,545.2,290.7
2023-12-27T09:24:08,2420,42.8014,5.9826,4330,272,185.988,56.982,13.325,36.064,36.643,41.233,4.590,296.0,545.2,290.7
2023-12-27T09:27:07,2420,42.8014,5.9826,4330,272,185.863,56.956,13.335,36.067,36.647,41.236,4.590,295.9,545.2,290.4
2023-12-27T09:30:07,2420,42.8014,5.9826,4330,272,186.038,57.012,13.337,36.054,36.634,41.219,4.585,295.9,545.2,290.4
2023-12-27T09:33:07,2420,42.8014,5.9826,4330,272,185.936,56.983,13.338,36.061,36.640,41.228,4.587,295.9,545.1,290.3
2023-12-27T09:36:07,2420,42.8014,5.9826,4330,272,185.820,56.942,13.334,36.070,36.649,41.236,4.586,295.9,545.1,290.4
2023-12-27T09:39:07,2420,42.8014,5.9826,4330,272,185.607,56.881,13.337,36.082,36.662,41.246,4.585,295.9,545.2,290.3
2023-12-27T09:42:08,2420,42.8014,5.9826,4330,272,185.652,56.895,13.338,36.079,36.659,41.239,4.580,296.0,545.1,290.3
2023-12-27T09:45:08,2420,42.8014,5.9826,4330,272,185.809,56.941,13.336,36.070,36.649,41.236,4.587,296.1,545.1,290.4
2023-12-27T09:48:08,2420,42.8014,5.9826,4330,272,185.696,56.904,13.334,36.078,36.658,41.244,4.586,296.0,545.1,290.4
2023-12-27T09:51:08,2420,42.8014,5.9826,4330,272,185.816,56.939,13.333,36.071,36.651,41.240,4.589,296.0,545.1,290.5
2023-12-27T09:54:07,2420,42.8014,5.9826,4330,272,185.538,56.854,13.332,36.089,36.669,41.251,4.582,296.0,545.2,290.5
2023-12-27T09:57:07,2420,42.8014,5.9826,4330,272,185.786,56.926,13.330,36.074,36.654,41.242,4.588,296.0,545.1,290.6
2023-12-27T10:00:08,2420,42.8014,5.9826,4330,272,185.882,56.954,13.328,36.069,36.649,41.234,4.586,296.0,545.1,290.6